This is the latest recevied weather packets stored in our database for station/object K3SV. If no packets are shown the sender has not sent any weather packets the latest 10 day(s).
| Time | Temp. | Humidity | Pressure | Rain* | Wind** | Luminosity | Snow |
|---|---|---|---|---|---|---|---|
| 1777679355 | 27.22° C | 66% | 1010.5 hPa | 0 mm | - | 13 W/m² | - |
| 1777679052 | 27.22° C | 64% | 1010.6 hPa | 0 mm | - | 16 W/m² | - |
| 1777678751 | 27.78° C | 61% | 1010.2 hPa | 0 mm | - | 18 W/m² | - |
| 1777678448 | 27.78° C | 60% | 1010.2 hPa | 0 mm | - | 19 W/m² | - |
| 1777678143 | 27.78° C | 58% | 1010.3 hPa | 0 mm | - | 26 W/m² | - |
| 1777677841 | 28.33° C | 57% | 1010.1 hPa | 0 mm | - | 33 W/m² | - |
| 1777677538 | 28.33° C | 56% | 1010.3 hPa | 0 mm | - | 45 W/m² | - |
| 1777677236 | 28.33° C | 55% | 1010 hPa | 0 mm | - | 43 W/m² | - |
| 1777676934 | 28.33° C | 54% | 1010 hPa | 0 mm | - | 41 W/m² | - |
| 1777676633 | 28.33° C | 55% | 1009.9 hPa | 0 mm | - | 41 W/m² | - |
| 1777676330 | 28.89° C | 55% | 1009.9 hPa | 0 mm | - | 48 W/m² | - |
| 1777676028 | 28.89° C | 55% | 1009.7 hPa | 0 mm | - | 48 W/m² | - |
| 1777675723 | 29.44° C | 54% | 1009.8 hPa | 0 mm | - | 44 W/m² | - |
| 1777675421 | 30° C | 53% | 1010 hPa | 0 mm | - | 66 W/m² | - |
| 1777675117 | 30° C | 52% | 1009.7 hPa | 0 mm | - | 113 W/m² | - |
| 1777674813 | 30.56° C | 52% | 1009.7 hPa | 0 mm | - | 136 W/m² | - |
| 1777674509 | 30.56° C | 51% | 1009.7 hPa | 0 mm | - | 151 W/m² | - |
| 1777674208 | 31.11° C | 51% | 1009.9 hPa | 0 mm | - | 170 W/m² | - |
| 1777673904 | 31.11° C | 50% | 1009.9 hPa | 0 mm | - | 204 W/m² | - |
| 1777673600 | 31.11° C | 51% | 1009.3 hPa | 0 mm | - | 232 W/m² | - |
| 1777673299 | 30° C | 52% | 1009.4 hPa | 0 mm | - | 241 W/m² | - |
| 1777672995 | 30.56° C | 52% | 1009.5 hPa | 0 mm | - | 122 W/m² | - |
| 1777672692 | 30.56° C | 50% | 1009.5 hPa | 0 mm | - | 124 W/m² | - |
| 1777672388 | 30.56° C | 50% | 1009.6 hPa | 0 mm | - | 129 W/m² | - |
| 1777672084 | 30.56° C | 51% | 1009.4 hPa | 0 mm | - | 292 W/m² | - |
* Rain latest hour (hover to see other rain measurements)
** Current wind speed in m/s (hover to see current wind gust speed)